Погода в Лукашево

Украина / Запорожская область     47°57′29″N   34°57′35″E
темп.,
°C
ветер,
м/с
пор.,
м/с
влажн.,
%
обл.,
%
осадки,
мм/ч
давл.,
гПа
погр.,
м
16 мая, пн
пн1600:00+12зсз498273 0.1 1015231
03:00+10зсз488520 0.1 1015134
06:00+9сз49865 0.0 1016226
09:00+14ссз57604 0.0 1017932
12:00+17сз67393 0.0 10171913
15:00+19сз573611 0.0 10172460
18:00+18сз474468 0.0 10162328
21:00+13зсз356116 0.0 101794
17 мая, вт
вт1700:00+10зсз3474100 0.0 101763
03:00+10сз347988 0.0 101674
06:00+11ссз3577100 0.0 1016127
09:00+15сз345050 0.0 1016816
12:00+18зсз56386 0.0 10152324
15:00+19зсз583692 0.0 10132544
18:00+18зсз594415 0.0 10122500
21:00+13сз336182 0.0 101231
18 мая, ср
ср1800:00+12ссз2365100 0.0 101258
03:00+10ссз3575100 0.0 101185
06:00+9с4868100 0.0 1011272
09:00+12ссз675482 0.0 1012816
12:00+15ссз674393 0.0 10132186
15:00+13ссз885290 0.0 10131617
18:00+11ссз896587 0.4 10161381
21:00+9ссз5108095 0.4 1018659
19 мая, чт
чт1900:00+7ссз512915 0.0 1019408
03:00+7ссз612936 0.0 1020376
06:00+7ссз611935 0.0 1022364
09:00+12ссз78645 0.0 1024921
12:00+15ссз68475 0.0 10241606
15:00+17сз674494 0.0 10232210
18:00+17ссз5853100 0.0 10221447
21:00+14зсз3761100 0.0 1023176
20 мая, пт
пт2000:00+11з4873100 0.0 1022133
03:00+10зсз41077100 0.0 1021200
06:00+11сз3776100 0.0 1021203
09:00+13сз2675100 0.0 1022304
12:00+18сз465392 0.0 10211396
15:00+18з455285 0.0 10191030
18:00+20ююз4549100 0.0 1017901
21:00+15ю4862100 0.0 1015155